Probability
5 4 3 4 4 2 1 0 0 0 0 0 0 0 0 0 0 0 0 0 0 0 0 0 0 0 0 0 0 0 0 0 0 0 0 0 0 0 0 0 1 1 1
4 2 2 1 1 1 0 0 0 0 0 0 0 0 0 0 0 0 0 0 0 0 0 0 0 0 0 0 0 0 0 0 0 0 0 0 0 0 0 0 0 0 0
2 2 1 0 0 0 0 0 0 0 0 0 0 0 0 0 0 0 0 0 0 0 0 0 0 0 0 0 0 0 0 0 0 0 0 0 0 0 0 0 0 0 0
2 2 1 0 0 0 0 0 0 0 0 0 0 0 0 0 0 0 0 0 0 0 0 0 0 0 0 0 0 0 0 0 0 0 0 0 0 0 0 0 0 0 0
2 2 1 1 1 1 1 1 1 0 0 0 0 0 0 0 0 0 0 0 0 0 0 0 0 0 0 0 0 0 0 0 0 0 0 0 0 0 0 0 0 0 0
3 2 3 3 3 3 2 2 1 0 0 0 0 0 0 1 0 0 0 0 0 0 0 0 0 0 0 0 0 0 0 0 0 0 0 0 0 0 0 0 0 0 0
5 5 6 7 6 5 3 1 0 0 0 0 0 0 0 0 0 0 0 0 0 0 0 0 0 0 0 0 0 0 0 0 0 0 0 0 0 0 0 0 0 0 0
6 7 7 8 8 6 2 0 0 0 0 0 0 0 0 0 0 0 0 0 0 0 0 0 0 0 0 0 0 0 0 0 0 0 0 0 0 0 0 0 0 0 0
5 6 7 8 7 5 2 1 0 0 0 0 0 0 0 0 0 0 0 0 0 0 0 0 0 0 0 0 0 0 0 0 0 0 0 0 0 0 0 0 0 0 0
4 4 6 6 5 4 2 1 0 0 0 0 0 0 0 0 0 0 0 0 0 0 0 0 0 0 0 0 0 0 0 0 0 0 0 0 0 0 0 0 0 0 0
4 4 4 4 4 3 2 1 0 0 0 0 0 0 0 0 0 0 0 0 0 0 0 0 0 0 0 0 0 0 0 0 0 0 0 0 0 0 0 0 0 0 0
4 3 3 3 3 3 2 1 0 0 0 0 0 0 0 0 0 0 0 0 0 0 0 0 0 0 0 0 0 0 0 0 0 0 0 0 0 0 0 0 0 0 0
3 3 3 3 2 1 1 0 0 0 0 0 0 0 0 0 0 0 0 0 0 0 0 0 0 0 0 0 0 0 0 0 0 0 0 0 0 0 0 0 0 0 0
3 3 3 2 1 0 0 0 0 0 0 0 0 0 0 0 0 0 0 0 0 0 0 0 0 0 0 0 0 0 0 0 0 0 0 0 0 0 0 0 0 0 0
1 2 1 1 0 0 0 0 0 0 0 0 0 0 0 0 0 0 0 0 0 0 0 0 0 0 0 0 0 0 0 0 0 0 0 0 0 0 0 0 0 0 0
0 0 0 0 0 0 0 0 0 0 0 0 0 0 0 0 0 0 0 0 0 0 0 0 0 0 0 0 0 0 0 0 0 0 0 0 0 0 0 0 0 0 0
0 0 0 0 0 0 0 0 0 0 0 0 0 0 0 0 0 0 0 0 0 0 0 0 0 0 0 0 0 0 0 0 0 0 0 0 0 0 0 0 0 0 0
0 0 0 0 0 0 0 0 0 0 0 0 0 0 0 0 0 0 0 0 0 0 0 0 0 0 0 0 0 0 0 0 0 0 0 0 0 0 0 0 0 0 0
0 0 0 0 0 0 0 0 0 0 0 0 0 0 0 0 0 0 0 0 0 0 0 0 0 0 0 0 0 0 0 0 0 0 0 0 0 0 0 0 0 0 0
0 0 0 0 0 0 0 0 0 0 0 0 0 0 0 0 0 0 0 0 0 0 0 0 0 0 0 0 0 0 0 0 0 0 0 0 0 0 0 0 0 0 0
0 0 0 0 0 0 0 0 0 0 0 0 0 0 0 0 0 0 0 0 0 0 0 0 0 0 0 0 0 0 0 0 0 0 0 0 0 0 0 0 0 0 0
0 0 0 0 0 0 0 0 0 0 0 0 0 0 0 0 0 0 0 0 0 0 0 0 0 0 0 0 0 0 0 0 0 0 0 0 0 0 0 0 0 0 0
0 0 0 0 0 0 0 0 0 0 0 0 0 0 0 0 0 0 0 0 0 0 0 0 0 0 0 0 0 0 0 0 0 0 0 0 0 0 0 0 0 0 0
0 0 0 0 0 0 0 0 0 0 0 0 0 0 0 0 0 0 0 0 0 0 0 0 0 0 0 0 0 0 0 0 0 0 0 0 0 0 0 0 0 0 0
0 0 0 0 0 0 0 0 0 0 0 0 0 0 0 0 0 0 0 0 0 0 0 0 0 0 0 0 0 0 0 0 0 0 0 0 0 0 0 0 0 0 0
0 0 0 0 0 0 0 0 0 0 0 0 0 0 0 0 0 0 0 0 0 0 0 0 0 0 0 0 0 0 0 0 0 0 0 0 0 0 0 0 0 0 0
Wind_Speed
3 3 3 3 3 3 3 2 2 2 3 3 3 3 3 3 3 2 2 2 2 2 2 1 2 2 1 1 1 0 1 1 2 1 1 1 1 2 3 3 3 3 4
4 4 3 3 4 4 3 3 3 3 4 4 4 4 4 4 3 3 3 3 3 2 2 3 3 2 3 2 1 0 0 1 1 1 1 1 2 2 3 3 3 3 3
4 5 4 4 4 4 3 4 4 4 4 4 4 4 4 4 4 4 3 3 3 3 3 3 3 3 3 3 2 1 1 1 1 1 1 1 1 1 2 3 4 3 4
5 6 5 5 4 4 4 4 4 4 5 4 4 4 4 4 4 4 4 4 4 5 5 4 4 4 3 3 2 2 2 2 2 2 2 1 1 2 2 2 2 3 3
6 6 5 5 5 5 5 5 5 5 5 4 5 5 4 4 4 4 4 5 5 5 6 5 6 7 8 6 4 3 3 3 3 3 3 2 2 2 1 1 2 2 3
6 6 6 6 5 5 5 5 6 6 6 6 6 6 6 5 7 8 6 5 6 6 6 6 6 8 10 11 11 10 8 5 4 3 3 3 2 2 1 1 1 1 1
6 6 6 6 6 5 5 6 6 6 6 6 6 6 7 7 9 9 10 6 6 6 6 5 5 6 7 7 9 12 12 12 9 4 4 3 2 2 1 1 1 2 1
6 5 5 6 6 6 6 6 5 5 5 5 6 6 6 7 9 9 10 8 7 7 6 6 6 6 6 6 7 9 9 9 8 6 5 4 4 3 2 2 2 3 3
6 5 5 6 6 6 6 5 4 5 5 5 5 6 6 6 8 9 8 6 7 8 7 7 6 6 8 8 8 8 8 7 9 12 11 10 11 10 6 4 4 4 3
6 5 5 6 7 7 6 5 4 5 5 5 6 6 6 5 7 8 8 5 6 6 6 7 10 8 8 8 7 7 7 6 6 7 9 10 9 10 11 6 3 3 2
6 6 6 6 6 6 5 4 5 5 6 6 6 5 6 6 7 8 8 5 5 5 5 5 5 9 10 9 8 6 5 4 5 6 6 7 7 7 7 6 5 3 3
7 7 6 6 5 6 6 5 5 5 6 5 5 5 4 5 5 6 8 7 6 6 4 3 5 9 10 10 7 7 8 7 5 6 6 6 5 5 5 6 6 6 5
8 7 6 6 5 5 6 6 4 4 4 3 3 4 3 3 4 7 7 7 7 5 4 6 7 9 9 8 10 9 7 5 5 5 5 4 3 4 4 4 5 5 7
8 7 6 6 6 5 4 4 4 3 4 3 3 3 2 2 2 2 3 3 5 5 4 6 8 9 8 7 7 6 5 4 4 4 3 3 3 4 5 4 4 4 5
8 7 6 5 6 5 4 3 3 2 2 4 3 3 3 2 0 1 2 2 2 3 3 4 4 4 4 4 4 4 4 4 4 3 3 3 3 4 4 4 3 4 4
8 6 5 5 5 5 5 5 7 5 5 4 4 4 2 2 3 4 4 4 4 5 5 4 3 3 3 2 3 3 3 3 3 3 3 3 3 3 3 3 3 3 3
8 7 6 5 5 5 5 5 4 4 7 6 5 5 4 4 4 4 5 6 6 6 4 3 2 2 2 2 2 2 2 2 2 2 2 2 2 2 2 3 3 2 3
7 8 7 5 5 5 4 4 4 4 3 2 3 4 4 4 4 4 5 6 4 3 2 2 2 1 1 1 1 1 1 2 2 2 2 2 2 2 2 2 2 2 2
7 6 5 5 5 5 4 4 4 4 3 3 2 2 2 3 4 4 3 2 2 2 2 1 1 1 1 1 1 1 1 1 1 1 1 1 1 1 1 1 1 2 1
6 9 8 6 5 5 5 4 4 4 3 3 2 2 2 2 2 2 1 1 2 2 2 2 1 1 1 1 1 1 1 1 1 1 1 1 0 0 0 1 1 1 1
6 7 10 7 5 5 5 4 4 4 4 3 2 2 4 3 2 2 2 2 2 2 2 2 1 1 1 1 1 1 1 0 0 0 0 1 0 0 0 0 1 1 1
6 6 6 6 5 5 5 5 4 4 4 4 2 2 4 2 2 2 2 2 2 2 2 2 2 2 2 2 2 1 1 1 0 0 0 0 0 0 0 0 0 1 1
6 7 6 5 5 6 5 5 4 4 4 4 3 3 3 3 3 3 3 2 2 2 2 2 2 2 2 2 2 2 2 2 2 2 1 1 0 0 0 0 0 1 1
7 7 7 6 5 5 5 5 5 5 4 4 4 4 3 3 3 4 4 3 3 3 3 3 3 4 4 2 2 2 2 2 2 2 2 2 1 1 1 1 1 2 2
6 6 6 6 6 5 5 5 5 4 4 4 4 4 4 4 4 4 4 3 3 3 4 4 3 4 5 5 3 3 2 3 2 2 2 2 2 2 2 2 2 2 2
6 6 6 5 5 5 5 5 5 5 4 4 4 4 4 4 4 4 4 4 4 4 4 4 5 6 6 4 5 4 3 3 3 3 2 2 2 2 2 2 3 3 3
Wind_Direction
125 113 104 103 100 96 90 80 69 57 57 62 67 66 60 51 52 65 59 48 50 28 16 22 357 347 326 312 294 219 206 206 232 289 11 17 45 59 58 65 62 64 67
125 112 103 97 93 89 84 74 73 70 64 68 71 70 63 53 52 62 61 57 57 41 24 28 14 7 3 359 20 35 196 193 176 195 10 33 48 52 62 64 59 63 65
117 112 101 93 90 86 79 74 74 77 74 70 71 68 60 53 53 57 65 65 58 48 38 35 20 20 23 22 29 32 30 72 109 129 70 33 46 61 65 63 58 49 61
119 115 109 100 93 84 75 72 73 78 78 73 69 67 65 60 55 57 63 65 62 53 46 41 35 32 34 28 37 36 56 70 81 94 82 49 42 44 68 65 57 45 48
122 116 111 103 95 87 77 71 70 71 74 70 69 61 56 59 55 56 62 67 64 58 48 42 47 53 51 50 57 54 63 72 76 75 71 56 40 38 38 37 74 61 44
124 122 114 105 96 89 82 77 75 70 68 67 63 60 56 56 56 64 73 68 66 63 54 44 47 47 52 55 61 63 65 70 74 73 68 60 35 13 21 83 96 86 58
124 124 120 112 102 94 90 83 79 74 71 68 61 62 60 53 58 68 70 73 69 60 54 48 50 48 49 56 60 57 53 53 58 74 73 50 27 352 18 63 48 60 65
120 119 119 114 109 102 95 90 85 80 77 72 64 61 61 53 62 73 75 72 69 59 53 51 55 48 51 65 69 63 55 46 46 52 59 48 40 31 47 77 93 84 73
129 129 126 124 118 111 106 102 94 88 79 71 66 63 63 52 59 71 74 72 67 56 47 46 53 55 50 68 76 72 61 47 50 59 59 54 51 51 54 73 72 81 66
146 137 130 126 122 118 116 109 97 95 90 84 70 59 62 57 57 68 71 77 71 60 48 43 48 57 57 65 75 75 68 46 44 46 46 42 43 45 45 49 61 80 74
133 122 117 116 119 120 113 107 108 103 94 86 78 60 52 52 58 63 66 77 83 75 62 48 43 55 60 62 67 70 76 76 63 59 52 44 40 40 37 37 37 48 61
126 123 120 119 123 120 116 109 108 111 103 94 86 69 48 41 53 66 70 74 83 85 74 60 58 63 64 61 62 65 69 70 67 61 55 43 37 33 29 34 42 48 49
126 125 123 116 109 118 122 122 113 110 111 106 98 87 61 43 46 60 69 75 78 83 78 75 70 66 63 59 56 58 60 62 65 62 53 39 25 21 27 35 38 47 54
132 131 129 125 118 110 109 118 124 131 129 125 120 112 90 60 45 42 56 70 72 75 70 66 66 63 61 54 49 47 48 53 64 64 56 40 32 37 35 28 31 29 43
136 134 132 128 127 117 102 89 114 115 147 149 152 146 138 125 291 113 112 94 95 101 96 68 57 52 51 46 46 43 41 45 50 49 53 51 44 43 36 29 36 42 48
141 143 142 138 134 131 122 92 60 77 88 107 130 137 123 135 131 110 101 97 97 110 97 83 76 71 68 57 50 43 39 39 39 47 52 52 49 45 42 38 43 50 51
150 152 148 147 147 145 142 138 122 73 70 78 96 120 124 129 120 112 107 94 90 103 92 93 93 88 78 69 59 53 41 28 37 54 58 50 48 46 46 41 40 42 38
147 151 150 152 152 150 149 146 144 141 127 80 57 87 113 123 121 119 119 102 80 74 93 108 110 107 97 87 76 64 48 45 52 54 54 49 48 50 47 42 40 32 24
151 151 150 148 147 146 145 143 140 138 134 124 109 87 96 106 92 91 114 112 129 128 127 125 128 131 131 133 116 87 74 60 53 57 51 43 43 53 48 40 35 28 27
154 154 152 149 149 148 149 150 148 148 149 151 158 161 151 126 113 110 122 136 144 152 159 159 156 152 151 156 151 126 97 73 54 51 37 32 40 70 53 27 17 12 2
154 155 153 152 156 158 159 161 160 161 164 169 186 186 168 158 162 167 172 175 180 181 178 172 164 165 173 175 166 148 134 102 44 353 351 353 16 45 24 25 8 352 341
155 156 160 162 161 161 162 164 165 166 169 171 176 167 167 163 170 177 188 193 197 193 183 177 179 187 199 200 194 186 194 214 246 263 280 332 1 358 354 353 1 3 355
153 155 156 156 158 158 160 164 167 169 173 178 173 171 176 186 189 193 198 199 193 188 183 185 187 191 200 211 214 213 220 234 241 236 229 222 224 239 251 308 313 318 323
155 156 157 156 156 159 165 170 173 175 178 182 182 186 191 195 199 202 204 199 192 193 192 194 204 209 207 207 215 225 237 243 238 230 224 223 225 234 234 247 270 285 287
153 155 157 160 160 164 168 173 177 183 188 190 191 194 196 198 203 204 202 198 197 202 205 203 208 216 220 222 224 229 232 229 229 227 220 223 234 237 246 255 264 272 277
154 155 156 156 158 163 168 174 181 186 191 195 196 198 200 203 206 206 202 200 204 210 213 213 218 220 224 227 232 231 227 227 227 225 223 227 235 244 252 258 270 272 276